Location: Aurora Center
(43.5271°N, 98.5894°W)
Time: 07:41:54
(UTC-05:00)

Tiros 1 - All Passes

Search period start: 19 July 2024 00:00
Search period end: 29 July 2024 00:00
Orbit: 624 x 656 km, 48.4° (Epoch: 19 July)

Date Brightness Start Highest point End Pass type
(mag) Time Alt. Az. Time Alt. Az. Time Alt. Az.
19 Jul - 13:17:25 10° SSE 13:18:42 11° SE 13:20:00 10° ESE daylight
19 Jul - 14:55:25 10° SW 14:59:58 52° SSE 15:04:30 10° ENE daylight
19 Jul - 16:37:26 10° W 16:42:03 57° NNW 16:46:37 10° ENE daylight
19 Jul - 18:20:06 10° WNW 18:24:36 46° N 18:29:03 10° E daylight
19 Jul - 20:02:18 10° WNW 20:06:57 89° SW 20:11:33 10° ESE daylight
19 Jul - 21:44:57 10° W 21:48:34 23° SW 21:52:08 10° S visible
20 Jul - 13:38:21 10° S 13:42:04 24° SE 13:45:47 10° E daylight
20 Jul - 15:19:01 10° WSW 15:23:43 90° S 15:28:23 10° ENE daylight
20 Jul - 17:01:35 10° W 17:06:05 47° N 17:10:34 10° ENE daylight
20 Jul - 18:44:03 10° WNW 18:48:38 57° NNE 18:53:10 10° E daylight
20 Jul - 20:26:14 10° WNW 20:30:41 51° SSW 20:35:08 10° SE daylight
20 Jul - 22:11:07 10° WSW 22:11:54 10° SW 22:12:42 10° SW visible
21 Jul - 14:01:07 10° SW 14:05:37 46° SE 14:10:05 10° ENE daylight
21 Jul - 15:42:58 10° W 15:47:37 61° NNW 15:52:14 10° ENE daylight
21 Jul - 17:25:40 10° WNW 17:30:10 46° N 17:34:37 10° ENE daylight
21 Jul - 19:07:54 10° WNW 19:12:33 83° NNE 19:17:10 10° ESE daylight
21 Jul - 20:50:25 10° W 20:54:15 26° SW 20:58:03 10° SSE daylight
22 Jul - 12:44:16 10° S 12:47:45 21° SE 12:51:13 10° E daylight
22 Jul - 14:24:36 10° WSW 14:29:19 82° SSE 14:34:00 10° ENE daylight
22 Jul - 16:07:05 10° W 16:11:38 48° N 16:16:08 10° ENE daylight
22 Jul - 17:49:37 10° WNW 17:54:12 54° NNE 17:58:44 10° E daylight
22 Jul - 19:31:47 10° WNW 19:36:20 58° SSW 19:40:50 10° SE daylight
22 Jul - 21:15:41 10° WSW 21:17:37 12° SW 21:19:32 10° SSW daylight
23 Jul - 13:06:50 10° SSW 13:11:14 40° SE 13:15:37 10° ENE daylight
23 Jul - 14:48:30 10° W 14:53:11 65° NNW 14:57:50 10° ENE daylight
23 Jul - 16:31:12 10° WNW 16:35:42 45° N 16:40:10 10° ENE daylight
23 Jul - 18:13:28 10° WNW 18:18:08 77° NNE 18:22:45 10° ESE daylight
23 Jul - 19:55:53 10° W 19:59:55 30° SW 20:03:54 10° SSE daylight
24 Jul - 11:50:14 10° S 11:53:25 18° SE 11:56:35 10° E daylight
24 Jul - 13:30:12 10° SW 13:34:54 74° SSE 13:39:35 10° ENE daylight
24 Jul - 15:12:35 10° W 15:17:10 50° N 15:21:42 10° ENE daylight
24 Jul - 16:55:10 10° WNW 16:59:45 52° N 17:04:16 10° E daylight
24 Jul - 18:37:19 10° WNW 18:41:56 65° SSW 18:46:29 10° SE daylight
24 Jul - 20:20:44 10° W 20:23:18 15° SW 20:25:51 10° SSW daylight
25 Jul - 12:12:33 10° SSW 12:16:51 35° SE 12:21:09 10° ENE daylight
25 Jul - 13:54:01 10° WSW 13:58:44 71° NNW 14:03:24 10° ENE daylight
25 Jul - 15:36:42 10° WNW 15:41:12 45° N 15:45:42 10° ENE daylight
25 Jul - 17:19:02 10° WNW 17:23:42 71° NNE 17:28:18 10° ESE daylight
25 Jul - 19:01:21 10° WNW 19:05:32 34° SW 19:09:42 10° SSE daylight
26 Jul - 10:56:18 10° S 10:59:04 15° SE 11:01:50 10° E daylight
26 Jul - 12:35:47 10° SW 12:40:28 66° SSE 12:45:09 10° ENE daylight
26 Jul - 14:18:04 10° W 14:22:41 52° N 14:27:16 10° ENE daylight
26 Jul - 16:00:42 10° WNW 16:05:16 50° N 16:09:47 10° E daylight
26 Jul - 17:42:52 10° WNW 17:47:31 73° SSW 17:52:06 10° SE daylight
26 Jul - 19:25:57 10° W 19:28:57 17° SW 19:31:58 10° S daylight
27 Jul - 11:18:18 10° SSW 11:22:27 31° SE 11:26:36 10° E daylight
27 Jul - 12:59:31 10° WSW 13:04:15 77° NNW 13:08:58 10° ENE daylight
27 Jul - 14:42:10 10° WNW 14:46:43 46° N 14:51:12 10° ENE daylight
27 Jul - 16:24:34 10° WNW 16:29:14 65° NNE 16:33:50 10° E daylight
27 Jul - 18:06:49 10° WNW 18:11:09 39° SW 18:15:27 10° SSE daylight
28 Jul - 10:02:28 10° SSE 10:04:42 13° SE 10:06:56 10° ESE daylight
28 Jul - 11:41:23 10° SW 11:46:02 59° SSE 11:50:40 10° ENE daylight
28 Jul - 13:23:32 10° W 13:28:11 54° NNW 13:32:47 10° ENE daylight
28 Jul - 15:06:11 10° WNW 15:10:45 48° N 15:15:17 10° E daylight
28 Jul - 16:48:23 10° WNW 16:53:04 82° SSW 16:57:41 10° ESE daylight
28 Jul - 18:31:13 10° W 18:34:36 20° SW 18:37:57 10° S daylight
